This is the latest recevied weather packets stored in our database for station/object KK7MLS-13. If no packets are shown the sender has not sent any weather packets the latest 10 day(s).
| Time | Temp. | Humidity | Pressure | Rain* | Wind** | Luminosity | Snow |
|---|---|---|---|---|---|---|---|
| 1788553466 | 20° C | 59% | 1013.4 hPa | 0 mm | - | 279 W/m² | - |
| 1788553162 | 20.56° C | 54% | 1013.4 hPa | 0 mm | - | 586 W/m² | - |
| 1788552856 | 20.56° C | 57% | 1013.3 hPa | 0 mm | - | 339 W/m² | - |
| 1788552552 | 21.11° C | 58% | 1013.3 hPa | 0 mm | - | 252 W/m² | - |
| 1788552251 | 20° C | 63% | 1013.2 hPa | 0 mm | - | 842 W/m² | - |
| 1788551946 | 18.89° C | 72% | 1013.3 hPa | 0 mm | - | 711 W/m² | - |
| 1788551644 | 18.89° C | 63% | 1013.5 hPa | 0 mm | - | 614 W/m² | - |
| 1788551339 | 18.89° C | 66% | 1013.4 hPa | 0 mm | - | 821 W/m² | - |
| 1788551038 | 18.89° C | 68% | 1013.6 hPa | 0 mm | - | 393 W/m² | - |
| 1788550733 | 18.33° C | 66% | 1013.7 hPa | 0 mm | - | 226 W/m² | - |
| 1788550429 | 18.33° C | 64% | 1013.5 hPa | 0 mm | - | 219 W/m² | - |
| 1788550124 | 17.78° C | 67% | 1013.6 hPa | 0 mm | - | 242 W/m² | - |
| 1788549819 | 18.33° C | 66% | 1013.6 hPa | 0 mm | - | 166 W/m² | - |
| 1788549543 | 18.33° C | 67% | 1013.7 hPa | 0 mm | - | 175 W/m² | - |
| 1788549212 | 18.89° C | 64% | 1013.6 hPa | 0 mm | - | 212 W/m² | - |
| 1788548908 | 19.44° C | 65% | 1013.8 hPa | 0 mm | - | 298 W/m² | - |
| 1788548604 | 18.89° C | 69% | 1013.8 hPa | 0 mm | - | 294 W/m² | - |
| 1788548300 | 17.78° C | 71% | 1013.7 hPa | 0 mm | - | 391 W/m² | - |
| 1788547995 | 17.22° C | 73% | 1013.6 hPa | 0 mm | - | 219 W/m² | - |
| 1788547695 | 17.22° C | 70% | 1013.7 hPa | 0 mm | - | 217 W/m² | - |
| 1788547390 | 17.22° C | 70% | 1013.5 hPa | 0 mm | - | 263 W/m² | - |
| 1788547086 | 17.22° C | 75% | 1013.4 hPa | 0 mm | - | 211 W/m² | - |
| 1788546786 | 17.22° C | 76% | 1013.5 hPa | 0 mm | - | 195 W/m² | - |
| 1788546481 | 17.22° C | 78% | 1013.5 hPa | 0 mm | - | 175 W/m² | - |
| 1788546176 | 16.67° C | 79% | 1013.5 hPa | 0 mm | - | 252 W/m² | - |
* Rain latest hour (hover to see other rain measurements)
** Current wind speed in m/s (hover to see current wind gust speed)